Regional Weather Roundup
Issued by NWS

Home | Current Version | Previous Version | Text Only | Print | Product List | Glossary On
Versions: 1 2 3 4 5 6 7 8 9 10 11 12 13 14 15 16 17 18 19 20 21 22 23 24 25 26 27 28 29 30 31 32 33 34 35 36 37 38 39 40 41 42 43 44 45 46 47 48 49 50
000
ASUS42 KTBW 041516
RWRFL
FLORIDA REGIONAL WEATHER ROUNDUP
NATIONAL WEATHER SERVICE TAMPA BAY RUSKIN FL
1100 AM EDT WED MAY 04 2016

NOTE: "FAIR" INDICATES FEW OR NO CLOUDS BELOW 12,000 FEET WITH NO
SIGNIFICANT WEATHER AND/OR OBSTRUCTIONS TO VISIBILITY.

FLZ001>010-012>015-112-114-115-041600-
PANHANDLE FLORIDA

CITY           SKY/WX    TMP DP  RH WIND       PRES   REMARKS
PENSACOLA      MOSUNNY   68  53  58 NW12      29.90R
PENSACOLA NAS  MOSUNNY   69  52  54 N10       29.90R
MILTON NAS     MOSUNNY   67  54  63 N8        29.90
CRESTVIEW      SUNNY     70  49  47 N10G17    29.90R
DUKE FIELD     MOSUNNY   71  33  25 N13       29.88R
VALPARAISO     MOSUNNY   70  52  52 NE1       29.87S
MARY ESTHER    SUNNY     71  49  46 N5        29.87R
TRI COUNTY     FAIR      71  54  54 N5        29.87S
PANAMA CITY    FAIR      73  54  51 VRB6      29.86S
TYNDALL AFB    MOSUNNY   72  57  58 N8        29.86S
APALACHICOLA   PTSUNNY   75  61  61 N13       29.84S

STATION/POSITION SKY/WX   TEMP    WIND        PRES    WAVE   SWELL
                          AIR SEA DIR/SP/G            HT/PER HT/PER
                          (F)     (DEG/KT/KT) (MB)    (FT/S) (FT/S)
30.1N   87.6W              65 75  350/ 10/ 12 1012.0R   2/ 3
29.2N   88.2W              69 75  360/ 12/ 16 1013.0R
28.8N   86.0W              73 78   30/ 17/ 19 1010.2F   3/ 5
PANAMA CITY BEAC           68 76   20/  4/  9 1011.7R
TOWER C                    71      10/ 16/ 19 1010.3F
28.5N   84.5W              74 76   10/ 10/ 12 1009.3F   2/ 5   2/ 5

$$
FLZ011-016>038-118-127-128-134-139-239-041600-
NORTH FLORIDA

CITY           SKY/WX    TMP DP  RH WIND       PRES   REMARKS
MARIANNA       SUNNY     71  55  56 N8        29.85S
TALLAHASSEE    PTSUNNY   73  55  53 VRB5      29.85S
PERRY          PTSUNNY   74  60  62 NW13      29.84R
LIVE OAK       CLOUDY    75  64  69 NW7       29.84S
CROSS CITY       N/A     75  65  70 N7        29.80S
LAKE CITY      FAIR      73  64  73 N13       29.81F
GAINESVILLE    PTSUNNY   74  69  85 CALM      29.81R
WILLISTON      PTSUNNY   73  73 100 SE3       29.82R
PALATKA        LGT RAIN  73  55  53 W5        29.80S
MAYPORT NAS    CLOUDY    78  66  66 NW6       29.78S
JACKSONVILLE   CLOUDY    75  64  68 NW7       29.78F
JAX NAS        PTSUNNY   77  65  66 NW8       29.80R
JAX CECIL      PTSUNNY   75  66  73 N6        29.80S
FERNANDINA BEA PTSUNNY   79  64  61 NW9       29.77S
ST AUGUSTINE   CLOUDY    72  69  90 SW6       29.80S FOG
PALM COAST     MOSUNNY   73  72  94 SW9       29.78  FOG

STATION/POSITION SKY/WX   TEMP    WIND        PRES    WAVE   SWELL
                          AIR SEA DIR/SP/G            HT/PER HT/PER
                          (F)     (DEG/KT/KT) (MB)    (FT/S) (FT/S)
SHELL POINT                70     360/  8/ 12 1009.5
KEATON BEACH               74      10/  7/ 12 1009.4S
CEDAR KEY                  75     300/  4/  6 1009.3F
FERNANDINA                 73 73  290/  6/  9 1008.5R
30.7N   81.3W                 72                N/A     2/ 7
MAYPORT                    73 71  320/  8/  9 1008.6R
ST AUGUSTINE               74 71  260/  5/  6 1009.5R

$$
FLZ040-043>046-052-053-057-058-063-144-041600-
INTERIOR CENTRAL FLORIDA

CITY           SKY/WX    TMP DP  RH WIND       PRES   REMARKS
OCALA          CLOUDY    72  66  83 S6        29.82S
THE VILLAGES     N/A     73  70  88 S9        29.74R
LEESBURG       CLOUDY    72  67  84 S15G23    29.84R
SANFORD        CLOUDY    72  64  76 S14G24    29.83R
ORLANDO EXEC   LGT RAIN  72  66  81 S18G24    29.85R
ORLANDO INTL   LGT RAIN  68  64  87 S15       29.87S
KISSIMMEE      LGT RAIN  68  66  94 S9        29.89R
WINTER HAVEN   RAIN      67  67 100 S13       29.92R FOG
LAKELAND       CLOUDY    68  68 100 SE8       29.89F FOG
BARTOW         LGT RAIN  64 N/A N/A VRB5      29.92S
OKEECHOBEE     TSTM      64  64 100 N9        29.91F

$$
FLZ041-047-054-059-064-141-147-041600-
EAST CENTRAL FLORIDA

CITY           SKY/WX    TMP DP  RH WIND       PRES   REMARKS
ORMOND BEACH   MOSUNNY   73  66  78 SW9       29.82R FOG
DAYTONA BEACH  CLOUDY    73  66  78 S8        29.82R
DELAND           N/A     73  66  78 S13       29.84R
NEW SMYRNA BEA PTSUNNY   73  64  73 NW12G21   29.82S
JFK SPACE CTR  LGT RAIN  72  64  78 SW18      29.82R
TITUSVILLE     MOSUNNY   68  66  94 SW8G21    29.86S
CAPE CANAVERAL CLOUDY    72  66  82 S21       29.83R
PATRICK AFB    LGT RAIN  70  68  94 SW18      29.89R
MELBOURNE      RAIN      69  66  90 S12       29.90R FOG
VERO BEACH     RAIN      69  67  93 W8        29.92R FOG
FT PIERCE      LGT RAIN  68  67  96 NW9G22    29.91S FOG
STUART         DRIZZLE   77  75  94 VRB5      29.92R FOG

STATION/POSITION SKY/WX   TEMP    WIND        PRES    WAVE   SWELL
                          AIR SEA DIR/SP/G            HT/PER HT/PER
                          (F)     (DEG/KT/KT) (MB)    (FT/S) (FT/S)
28.5N   80.2W              73 77  180/ 21/ 23 1009.1F
28.9N   78.5W              79 78  250/ 16/ 17 1009.2R
TRIDENT PIER               73 80  160/ 12/ 16 1010.1F
28.4N   80.5W                 78                N/A     2/10
27.5N   80.2W                 77                N/A     2/10

$$
FLZ050-056-061-142-242-148-248-149-249-151-251-155-255-
160-260-041600-
WEST CENTRAL FLORIDA

CITY           SKY/WX    TMP DP  RH WIND       PRES   REMARKS
CRYSTAL RIVER  CLOUDY    72  70  94 S5        29.82R
INVERNESS      FAIR      70  70 100 S9        29.85R
BROOKSVILLE    RAIN      69  68  96 S13       29.86R FOG
ZEPHYRHILLS    DRIZZLE   61  58  91 S13       29.89R
CLEARWATER AIR LGT RAIN  70  70 100 CALM      29.84F
ST PETE CLEARW LGT RAIN  72  70  93 CALM      29.85F
TAMPA INTL     CLOUDY    72  70  93 NE5       29.85F
TAMPA EXEC     RAIN      72  68  88 E5        29.86F
PLANT CITY     LGT RAIN  70  70 100 E3        29.89F
MACDILL AFB    CLOUDY    71  71 100 E5        29.84F
PETER O KNIGHT LGT RAIN  73  72  94 MISG      29.85F
ST PETERSBURG  CLOUDY    71  68  90 E6        29.82F
SARASOTA       TSTM      70  67  90 E9        29.83F FOG
VENICE         NOT AVBL

STATION/POSITION SKY/WX   TEMP    WIND        PRES    WAVE   SWELL
                          AIR SEA DIR/SP/G            HT/PER HT/PER
                          (F)     (DEG/KT/KT) (MB)    (FT/S) (FT/S)
27.3N   84.2W                 79                N/A     3/ 5
CLEARWATER BEACH           74 80  310/ 11/ 13 1011.4R
MIDDLE TAMPA BAY           72     320/  9/ 12 1011.7R
VENICE                     70 83   30/ 13/ 19 1010.1R

$$
FLZ066-069-070-075>078-162-262-165-265-041600-
SOUTHWEST FLORIDA AND KEYS

CITY           SKY/WX    TMP DP  RH WIND       PRES   REMARKS
PUNTA GORDA    CLOUDY    69  67  93 NE14      29.87F
FT MYERS       CLOUDY    80  72  76 S8        29.85F
SOUTHWEST INTL CLOUDY    81  72  74 S9        29.86F
NAPLES           N/A     81  73  78 S8        29.87R
MARCO ISLAND   CLOUDY    82  72  69 SW5       29.87S
MARATHON       PTSUNNY   87  77  72 SW8G17    29.87R HX  99
KEY WEST NAS   CLOUDY    86  77  74 SW15      29.87R HX  97
KEY WEST INTL  CLOUDY    81  78  91 SW14      29.88R

STATION/POSITION SKY/WX   TEMP    WIND        PRES    WAVE   SWELL
                          AIR SEA DIR/SP/G            HT/PER HT/PER
                          (F)     (DEG/KT/KT) (MB)    (FT/S) (FT/S)
NAPLES                        84              1011.2R
26.0N   85.6W              73 80  270/  8/ 10 1010.5F   3/ 4   2/ 4
DRY TORTUGAS               80     220/ 10/ 11 1011.3R
SAND KEY                   81     220/ 16/ 18 1011.8R
LONG KEY                   82 83  240/ 10/ 11 1012.0R

$$
FLZ067-068-071>074-168-172>174-041600-
SOUTHEAST FLORIDA

CITY           SKY/WX    TMP DP  RH WIND       PRES   REMARKS
W PALM BEACH   CLOUDY    77  72  84 W8        29.90R
BOCA RATON     CLOUDY    82  72  69 W12       29.89R
FT LAUDER-EXEC CLOUDY    83  71  67 NW10      29.89R
FT LAUDERDALE  CLOUDY    86  71  60 W12       29.88R
POMPANO BEACH  CLOUDY    85  72  65 NW9       29.89R
PEMBROKE PINES PTSUNNY   85  72  65 W9        29.89S
OPA LOCKA      MOSUNNY   85  72  65 SW10G20   29.88S
MIAMI          CLOUDY    83  73  72 SW9       29.88S
WEST KENDALL   RAIN      71  64  78 S12G26    29.90R
HOMESTEAD      CLOUDY    81  68  65 NW13G21   29.89R THUNDER

STATION/POSITION SKY/WX   TEMP    WIND        PRES    WAVE   SWELL
                          AIR SEA DIR/SP/G            HT/PER HT/PER
                          (F)     (DEG/KT/KT) (MB)    (FT/S) (FT/S)
PORT EVERGLADES            83     230/  7/ 10 1011.7R
VIRGINIA KEY               80 82  220/  7/  9 1012.0R
LAKE WORTH                 78 79  250/  6/  8 1012.0R
SETTLEMENT POINT           80     250/ 13/ 14 1012.7R

$$




USA.gov is the U.S. government's official web portal to all federal, state and local government web resources and services.